,,,PA_Meas_PMT16A,,PR_Meas_QMR101_102,,RH_Meas_QMH101,,SR_Meas_QMS101,,TA_Meas_QMH101,,GenWind,,GenWind,
date,time,status,PA,status,PR,status,RH,status,SR,status,TA,status,DirAvg,status,SpdAvg,
2008-08-21, 06:17:04,VALID,1006.45,VALID,0,VALID,96.3299,VALID,42.7393,VALID,22.8667,VALID,353,VALID,0.0496094,
2008-08-21, 06:18:04,VALID,1006.44,VALID,0,VALID,96.368,VALID,45.2533,VALID,22.8667,VALID,353,VALID,0.299219,
2008-08-21, 06:19:04,VALID,1006.44,VALID,0,VALID,96.368,VALID,47.6668,VALID,22.8879,VALID,353,VALID,0.295312,
2008-08-21, 06:20:04,VALID,1006.39,VALID,0,VALID,96.368,VALID,49.3764,VALID,22.8861,VALID,353,VALID,0.304297,
2008-08-21, 06:21:04,VALID,1006.37,VALID,0,VALID,96.368,VALID,50.8848,VALID,22.8861,VALID,353,VALID,0.312891,
2008-08-21, 06:22:04,VALID,1006.35,VALID,0,VALID,96.3833,VALID,52.695,VALID,22.9251,VALID,353,VALID,0.450391,
2008-08-21, 06:23:04,VALID,1006.35,VALID,0,VALID,96.3756,VALID,54.9074,VALID,22.9445,VALID,354,VALID,0.423438,
2008-08-21, 06:24:04,VALID,1006.35,VALID,0,VALID,96.3909,VALID,58.2259,VALID,22.9834,VALID,345,VALID,0.510938,
2008-08-21, 06:25:04,VALID,1006.34,VALID,0,VALID,96.3985,VALID,61.8462,VALID,23.0046,VALID,347,VALID,0.444141,
2008-08-21, 06:26:04,VALID,1006.35,VALID,0,VALID,96.3833,VALID,73.3104,VALID,23.0206,VALID,347,VALID,0.348828,
2008-08-21, 06:27:04,VALID,1006.34,VALID,0,VALID,96.3909,VALID,78.4391,VALID,23.1019,VALID,347,VALID,0.475391,
2008-08-21, 06:28:04,VALID,1006.37,VALID,0,VALID,96.3985,VALID,91.814,VALID,23.1197,VALID,360,VALID,0.436719,
2008-08-21, 06:29:04,VALID,1006.38,VALID,0,VALID,96.3756,VALID,98.1494,VALID,23.1586,VALID,360,VALID,0.542188,
2008-08-21, 06:30:04,VALID,1006.42,VALID,0,VALID,96.3833,VALID,94.5292,VALID,23.1993,VALID,359,VALID,0.574609,
2008-08-21, 06:31:04,VALID,1006.39,VALID,0,VALID,96.3451,VALID,105.491,VALID,23.1763,VALID,355,VALID,0.550781,
2008-08-21, 06:32:04,VALID,1006.39,VALID,0,VALID,96.3451,VALID,112.128,VALID,23.2364,VALID,349,VALID,0.757813,
2008-08-21, 06:33:04,VALID,1006.39,VALID,0,VALID,96.3375,VALID,106.898,VALID,23.2754,VALID,353,VALID,0.510547,
2008-08-21, 06:34:04,VALID,1006.39,VALID,0,VALID,96.368,VALID,101.267,VALID,23.3532,VALID,359,VALID,0.471484,
2008-08-21, 06:35:04,VALID,1006.37,VALID,0,VALID,96.3604,VALID,106.194,VALID,23.4505,VALID,359,VALID,0.232812,
2008-08-21, 06:36:04,VALID,1006.37,VALID,0,VALID,96.3299,VALID,122.385,VALID,23.5107,VALID,9,VALID,0.900391,
2008-08-21, 06:37:04,VALID,1006.36,VALID,0,VALID,96.3146,VALID,131.134,VALID,23.5284,VALID,5,VALID,0.467187,
2008-08-21, 06:38:04,VALID,1006.37,VALID,0,VALID,96.2765,VALID,136.363,VALID,23.5673,VALID,351,VALID,0.535547,
2008-08-21, 06:39:04,VALID,1006.37,VALID,0,VALID,96.2536,VALID,153.761,VALID,23.6062,VALID,353,VALID,0.426172,
2008-08-21, 06:40:04,VALID,1006.37,VALID,0,VALID,96.2383,VALID,163.013,VALID,23.6841,VALID,358,VALID,0.38125,
2008-08-21, 06:41:04,VALID,1006.36,VALID,0,VALID,96.2154,VALID,165.929,VALID,23.7814,VALID,358,VALID,0.216797,
2008-08-21, 06:42:04,VALID,1006.35,VALID,0,VALID,96.1239,VALID,168.946,VALID,23.7832,VALID,353,VALID,0.575781,
2008-08-21, 06:43:04,VALID,1006.35,VALID,0,VALID,96.0552,VALID,172.264,VALID,23.8398,VALID,354,VALID,0.468359,
2008-08-21, 06:44:04,VALID,1006.32,VALID,0,VALID,95.9561,VALID,175.281,VALID,23.8805,VALID,351,VALID,0.628906,
2008-08-21, 06:45:04,VALID,1006.32,VALID,0,VALID,95.895,VALID,176.991,VALID,23.9389,VALID,353,VALID,0.194531,
2008-08-21, 06:46:04,VALID,1006.31,VALID,0,VALID,95.8264,VALID,177.393,VALID,24.0168,VALID,360,VALID,0.725391,
2008-08-21, 06:47:04,VALID,1006.29,VALID,0,VALID,95.6814,VALID,177.393,VALID,24.0752,VALID,358,VALID,0.467969,
2008-08-21, 06:48:04,VALID,1006.28,VALID,0,VALID,95.2618,VALID,177.393,VALID,24.0752,VALID,357,VALID,1.175,
2008-08-21, 06:49:04,VALID,1006.24,VALID,0,VALID,95.1855,VALID,178.298,VALID,24.0947,VALID,357,VALID,0.354297,
2008-08-21, 06:50:04,VALID,1006.25,VALID,0,VALID,95.2084,VALID,180.812,VALID,24.192,VALID,3,VALID,0.275391,
2008-08-21, 06:51:04,VALID,1006.22,VALID,0,VALID,94.9719,VALID,184.432,VALID,24.2115,VALID,5,VALID,0.664063,
2008-08-21, 06:52:04,VALID,1006.2,VALID,0,VALID,94.7736,VALID,188.153,VALID,24.231,VALID,343,VALID,0.570313,
2008-08-21, 06:53:04,VALID,1006.22,VALID,0,VALID,94.6744,VALID,192.578,VALID,24.2894,VALID,342,VALID,0.483594,
2008-08-21, 06:54:04,VALID,1006.21,VALID,0,VALID,94.3387,VALID,197.003,VALID,24.3107,VALID,9,VALID,0.808984,
2008-08-21, 06:55:04,VALID,1006.22,VALID,0,VALID,94.209,VALID,202.031,VALID,24.3283,VALID,6,VALID,0.549219,
2008-08-21, 06:56:04,VALID,1006.21,VALID,0,VALID,94.2243,VALID,206.556,VALID,24.3849,VALID,6,VALID,0.592969,
2008-08-21, 06:57:04,VALID,1006.19,VALID,0,VALID,93.7055,VALID,211.383,VALID,24.3867,VALID,356,VALID,0.857422,
2008-08-21, 06:58:04,VALID,1006.2,VALID,0,VALID,93.5911,VALID,215.406,VALID,24.3673,VALID,355,VALID,0.860937,
2008-08-21, 06:59:04,VALID,1006.2,VALID,0,VALID,93.6598,VALID,219.227,VALID,24.3654,VALID,356,VALID,0.425781,
2008-08-21, 07:00:04,VALID,1006.23,VALID,0,VALID,93.7971,VALID,223.049,VALID,24.4646,VALID,356,VALID,0.599609,
2008-08-21, 07:01:04,VALID,1006.27,VALID,0,VALID,93.5224,VALID,226.971,VALID,24.5035,VALID,356,VALID,0.601563,
2008-08-21, 07:02:04,VALID,1006.27,VALID,0,VALID,93.2478,VALID,230.189,VALID,24.6028,VALID,343,VALID,0.516406,
2008-08-21, 07:03:04,VALID,1006.31,VALID,0,VALID,93.2554,VALID,233.205,VALID,24.6788,VALID,276,VALID,0.478906,
2008-08-21, 07:04:04,VALID,1006.39,VALID,0,VALID,93.1639,VALID,235.518,VALID,24.7372,VALID,358,VALID,0.252344,
2008-08-21, 07:05:04,VALID,1006.41,VALID,0,VALID,93.1563,VALID,238.032,VALID,24.854,VALID,340,VALID,0.000390625,
2008-08-21, 07:06:04,VALID,1006.4,VALID,0,VALID,92.607,VALID,239.742,VALID,24.9319,VALID,337,VALID,0.387891,
2008-08-21, 07:07:04,VALID,1006.42,VALID,0,VALID,91.8517,VALID,241.854,VALID,25.0312,VALID,338,VALID,0.358984,
2008-08-21, 07:08:04,VALID,1006.41,VALID,0,VALID,91.2719,VALID,244.368,VALID,25.0098,VALID,349,VALID,0.65625,
2008-08-21, 07:09:04,VALID,1006.42,VALID,0,VALID,91.7144,VALID,246.781,VALID,25.0488,VALID,11,VALID,0.483594,
2008-08-21, 07:10:04,VALID,1006.43,VALID,0,VALID,91.2948,VALID,248.692,VALID,25.1267,VALID,11,VALID,0,
2008-08-21, 07:11:04,VALID,1006.43,VALID,0,VALID,89.9445,VALID,250.703,VALID,25.1656,VALID,4,VALID,0.595703,
2008-08-21, 07:12:04,VALID,1006.44,VALID,0,VALID,89.7309,VALID,253.62,VALID,25.2046,VALID,360,VALID,0.438281,
2008-08-21, 07:13:04,VALID,1006.44,VALID,0,VALID,88.7773,VALID,256.033,VALID,25.2435,VALID,359,VALID,0.521875,
2008-08-21, 07:14:04,VALID,1006.47,VALID,0,VALID,89.8835,VALID,259.452,VALID,25.3233,VALID,359,VALID,0.491406,
2008-08-21, 07:15:04,VALID,1006.49,VALID,0,VALID,89.5173,VALID,262.57,VALID,25.3798,VALID,358,VALID,0.532812,
2008-08-21, 07:16:04,VALID,1006.52,VALID,0,VALID,90.5777,VALID,266.492,VALID,25.5162,VALID,358,VALID,0.0773437,
2008-08-21, 07:17:04,VALID,1006.58,VALID,0,VALID,88.4645,VALID,270.414,VALID,25.5727,VALID,356,VALID,0.309766,
2008-08-21, 07:18:04,VALID,1006.6,VALID,0,VALID,88.6857,VALID,273.732,VALID,25.6915,VALID,348,VALID,0.348047,
2008-08-21, 07:19:04,VALID,1006.66,VALID,0,VALID,88.6094,VALID,277.051,VALID,25.748,VALID,347,VALID,0.138672,
2008-08-21, 07:20:04,VALID,1006.67,VALID,0,VALID,87.9915,VALID,280.671,VALID,25.8083,VALID,347,VALID,0.290234,
2008-08-21, 07:21:04,VALID,1006.69,VALID,0,VALID,88.1059,VALID,283.587,VALID,25.8278,VALID,347,VALID,0.00195313,
2008-08-21, 07:22:04,VALID,1006.71,VALID,0,VALID,88.4187,VALID,287.107,VALID,25.9057,VALID,347,VALID,0,
2008-08-21, 07:23:04,VALID,1006.72,VALID,0,VALID,87.2973,VALID,290.024,VALID,26.0421,VALID,347,VALID,0,
2008-08-21, 07:24:04,VALID,1006.73,VALID,0,VALID,86.0156,VALID,292.437,VALID,26.1999,VALID,347,VALID,0,
2008-08-21, 07:25:04,VALID,1006.74,VALID,0,VALID,84.589,VALID,295.353,VALID,26.2953,VALID,347,VALID,0,
2008-08-21, 07:26:04,VALID,1006.77,VALID,0,VALID,84.4212,VALID,298.873,VALID,26.3538,VALID,347,VALID,0,
2008-08-21, 07:27:04,VALID,1006.82,VALID,0,VALID,82.5674,VALID,302.694,VALID,26.4337,VALID,347,VALID,0,
2008-08-21, 07:28:04,VALID,1006.82,VALID,0,VALID,82.9412,VALID,305.611,VALID,26.4142,VALID,347,VALID,0,
2008-08-21, 07:29:04,VALID,1006.86,VALID,0,VALID,81.8808,VALID,308.829,VALID,26.4922,VALID,347,VALID,0,
2008-08-21, 07:30:04,VALID,1006.9,VALID,0,VALID,82.9946,VALID,312.65,VALID,26.5311,VALID,25,VALID,0,
2008-08-21, 07:31:04,VALID,1006.93,VALID,0,VALID,81.5527,VALID,315.868,VALID,26.5876,VALID,33,VALID,0.59375,
2008-08-21, 07:32:04,VALID,1006.96,VALID,0,VALID,82.0944,VALID,319.388,VALID,26.6265,VALID,33,VALID,0.237891,
2008-08-21, 07:33:04,VALID,1006.97,VALID,0,VALID,81.5527,VALID,323.612,VALID,26.644,VALID,33,VALID,0.191016,
2008-08-21, 07:34:04,VALID,1006.97,VALID,0,VALID,84.116,VALID,327.534,VALID,26.8214,VALID,33,VALID,0,
2008-08-21, 07:35:04,VALID,1006.99,VALID,0,VALID,83.2692,VALID,331.556,VALID,26.9967,VALID,33,VALID,0.156641,
2008-08-21, 07:36:04,VALID,1006.96,VALID,0,VALID,82.102,VALID,335.277,VALID,27.0942,VALID,351,VALID,0.385547,
2008-08-21, 07:37:04,VALID,1006.93,VALID,0,VALID,81.9723,VALID,339.098,VALID,27.1331,VALID,343,VALID,0.201562,
2008-08-21, 07:38:04,VALID,1006.94,VALID,0,VALID,77.9748,VALID,342.216,VALID,27.1331,VALID,340,VALID,0.769922,
2008-08-21, 07:39:04,VALID,1006.95,VALID,0,VALID,80.1414,VALID,345.132,VALID,27.0747,VALID,340,VALID,0.410156,
2008-08-21, 07:40:04,VALID,1006.95,VALID,0,VALID,79.5997,VALID,348.551,VALID,27.0357,VALID,293,VALID,0.373828,
2008-08-21, 07:41:04,VALID,1006.9,VALID,0,VALID,81.4764,VALID,353.579,VALID,27.0377,VALID,358,VALID,0.668359,
2008-08-21, 07:42:04,VALID,1006.93,VALID,0,VALID,79.0428,VALID,358.205,VALID,27.0183,VALID,360,VALID,0.84375,
2008-08-21, 07:43:04,VALID,1006.95,VALID,0,VALID,81.034,VALID,365.546,VALID,26.9967,VALID,2,VALID,0.533594,
2008-08-21, 07:44:04,VALID,1006.96,VALID,0,VALID,80.6144,VALID,355.389,VALID,27.0572,VALID,357,VALID,0.274219,
2008-08-21, 07:45:04,VALID,1006.99,VALID,0,VALID,81.568,VALID,370.373,VALID,27.1742,VALID,357,VALID,0,
2008-08-21, 07:46:04,VALID,1006.99,VALID,0,VALID,78.7224,VALID,376.709,VALID,27.2716,VALID,337,VALID,0.321094,
2008-08-21, 07:47:04,VALID,1007.01,VALID,0,VALID,79.9049,VALID,374.698,VALID,27.2326,VALID,236,VALID,0.259375,
2008-08-21, 07:48:04,VALID,1007,VALID,0,VALID,78.4783,VALID,383.145,VALID,27.1547,VALID,2,VALID,0.767578,
2008-08-21, 07:49:04,VALID,1007.03,VALID,0,VALID,80.027,VALID,368.865,VALID,27.0183,VALID,15,VALID,1.06953,
2008-08-21, 07:50:04,VALID,1007.03,VALID,0,VALID,80.6754,VALID,391.693,VALID,26.9793,VALID,3,VALID,0.239844,
2008-08-21, 07:51:04,VALID,1007.02,VALID,0,VALID,78.3791,VALID,386.162,VALID,27.0183,VALID,21,VALID,0.748047,
2008-08-21, 07:52:04,VALID,1007.04,VALID,0,VALID,77.4179,VALID,348.652,VALID,27.0203,VALID,358,VALID,0.6375,
2008-08-21, 07:53:04,VALID,1006.99,VALID,0,VALID,77.9748,VALID,402.352,VALID,26.9793,VALID,11,VALID,0.667969,
2008-08-21, 07:54:04,VALID,1007,VALID,0,VALID,78.5775,VALID,404.464,VALID,26.9988,VALID,12,VALID,0.296094,
2008-08-21, 07:55:04,VALID,1007.01,VALID,0,VALID,79.4624,VALID,408.99,VALID,27.1526,VALID,12,VALID,0,
2008-08-21, 07:56:04,VALID,1007.01,VALID,0,VALID,79.7828,VALID,413.414,VALID,27.2131,VALID,9,VALID,0.356641,
2008-08-21, 07:57:04,VALID,1007,VALID,0,VALID,78.7453,VALID,418.945,VALID,27.1526,VALID,8,VALID,0.267969,
2008-08-21, 07:58:04,VALID,1007.02,VALID,0,VALID,79.2564,VALID,419.549,VALID,27.1331,VALID,4,VALID,0.228516,
2008-08-21, 07:59:04,VALID,1007,VALID,0,VALID,79.8744,VALID,329.042,VALID,27.1136,VALID,18,VALID,0.0488281,
2008-08-21, 08:00:04,VALID,1006.99,VALID,0,VALID,79.5235,VALID,446.097,VALID,27.0377,VALID,123,VALID,0.362891,
2008-08-21, 08:01:04,VALID,1006.98,VALID,0,VALID,79.4929,VALID,438.756,VALID,27.1157,VALID,121,VALID,0.381641,
2008-08-21, 08:02:04,VALID,1006.98,VALID,0,VALID,79.6455,VALID,443.885,VALID,27.0942,VALID,192,VALID,0.691016,
2008-08-21, 08:03:04,VALID,1006.99,VALID,0,VALID,81.8503,VALID,409.693,VALID,27.1526,VALID,204,VALID,0.359375,
2008-08-21, 08:04:04,VALID,1007.02,VALID,0,VALID,80.8738,VALID,457.461,VALID,27.3085,VALID,200,VALID,0.541406,
2008-08-21, 08:05:04,VALID,1007,VALID,0,VALID,77.3568,VALID,464.199,VALID,27.2111,VALID,168,VALID,1.31992,
2008-08-21, 08:06:04,VALID,1006.97,VALID,0,VALID,78.6843,VALID,472.143,VALID,27.0747,VALID,218,VALID,1.02656,
2008-08-21, 08:07:04,VALID,1006.94,VALID,0,VALID,78.9437,VALID,480.691,VALID,27.0183,VALID,232,VALID,0.783984,
2008-08-21, 08:08:04,VALID,1006.95,VALID,0,VALID,79.943,VALID,486.725,VALID,27.0377,VALID,232,VALID,0.580859,
2008-08-21, 08:09:04,VALID,1006.96,VALID,0,VALID,79.7905,VALID,492.557,VALID,27.0377,VALID,156,VALID,0.622656,
2008-08-21, 08:10:04,VALID,1006.96,VALID,0,VALID,79.4777,VALID,499.798,VALID,27.1136,VALID,147,VALID,0.891797,
2008-08-21, 08:11:04,VALID,1006.92,VALID,0,VALID,78.0358,VALID,505.128,VALID,27.1157,VALID,143,VALID,0.936719,
2008-08-21, 08:12:04,VALID,1006.96,VALID,0,VALID,78.8674,VALID,512.167,VALID,27.1331,VALID,140,VALID,0.753516,
2008-08-21, 08:13:04,VALID,1006.94,VALID,0,VALID,77.1814,VALID,517.396,VALID,27.1547,VALID,124,VALID,1.16094,
2008-08-21, 08:14:04,VALID,1006.96,VALID,0,VALID,77.9443,VALID,503.418,VALID,27.2131,VALID,121,VALID,0.365234,
2008-08-21, 08:15:04,VALID,1006.95,VALID,0,VALID,77.1509,VALID,519.508,VALID,27.367,VALID,167,VALID,0.852734,
2008-08-21, 08:16:04,VALID,1006.98,VALID,0,VALID,77.7612,VALID,462.288,VALID,27.3496,VALID,185,VALID,0.739453,
2008-08-21, 08:17:04,VALID,1006.99,VALID,0,VALID,79.5387,VALID,377.111,VALID,27.3301,VALID,190,VALID,1.01367,
2008-08-21, 08:18:04,VALID,1006.99,VALID,0,VALID,76.6931,VALID,351.065,VALID,27.2521,VALID,190,VALID,1.74023,
2008-08-21, 08:19:04,VALID,1007,VALID,0,VALID,79.0581,VALID,296.862,VALID,27.1352,VALID,156,VALID,1.1293,
2008-08-21, 08:20:04,VALID,1006.99,VALID,0,VALID,80.2024,VALID,365.043,VALID,26.9967,VALID,200,VALID,1.39883,
2008-08-21, 08:21:04,VALID,1006.99,VALID,0,VALID,79.3861,VALID,203.741,VALID,26.8993,VALID,222,VALID,1.18047,
2008-08-21, 08:22:04,VALID,1006.97,VALID,0,VALID,80.4084,VALID,168.745,VALID,26.8234,VALID,208,VALID,1.125,
2008-08-21, 08:23:04,VALID,1006.98,VALID,0,VALID,80.8814,VALID,128.017,VALID,26.687,VALID,176,VALID,0.493359,
2008-08-21, 08:24:04,VALID,1006.94,VALID,0,VALID,81.9799,VALID,129.324,VALID,26.6285,VALID,187,VALID,0.695703,
2008-08-21, 08:25:04,VALID,1006.96,VALID,0,VALID,81.8808,VALID,147.425,VALID,26.5896,VALID,193,VALID,0.897266,
2008-08-21, 08:26:04,VALID,1006.93,VALID,0,VALID,83.1319,VALID,139.481,VALID,26.5506,VALID,162,VALID,0.477734,
2008-08-21, 08:27:04,VALID,1006.97,VALID,0,VALID,82.636,VALID,151.85,VALID,26.4922,VALID,174,VALID,1.16289,
2008-08-21, 08:28:04,VALID,1007,VALID,0,VALID,83.2463,VALID,168.041,VALID,26.4532,VALID,187,VALID,1.25742,
2008-08-21, 08:29:04,VALID,1006.99,VALID,0,VALID,83.4218,VALID,121.782,VALID,26.3558,VALID,185,VALID,1.17266,
2008-08-21, 08:30:04,VALID,1006.98,VALID,0,VALID,83.6125,VALID,120.273,VALID,26.2973,VALID,169,VALID,0.982813,
2008-08-21, 08:31:04,VALID,1006.99,VALID,0,VALID,82.8344,VALID,112.832,VALID,26.2778,VALID,176,VALID,1.31602,
2008-08-21, 08:32:04,VALID,1006.97,VALID,0,VALID,83.9024,VALID,109.412,VALID,26.1999,VALID,171,VALID,0.851172,
2008-08-21, 08:33:04,VALID,1006.95,VALID,0,VALID,83.5896,VALID,113.737,VALID,26.1415,VALID,165,VALID,0.794531,
2008-08-21, 08:34:04,VALID,1006.92,VALID,0,VALID,84.0626,VALID,113.636,VALID,26.081,VALID,158,VALID,0.651563,
2008-08-21, 08:35:04,VALID,1006.91,VALID,0,VALID,85.062,VALID,114.24,VALID,26.083,VALID,159,VALID,0.732422,
2008-08-21, 08:36:04,VALID,1006.95,VALID,0,VALID,83.8872,VALID,117.357,VALID,26.0616,VALID,187,VALID,0.948828,
2008-08-21, 08:37:04,VALID,1006.93,VALID,0,VALID,84.0626,VALID,122.988,VALID,26.0226,VALID,180,VALID,0.75625,
2008-08-21, 08:38:04,VALID,1006.95,VALID,0,VALID,83.4981,VALID,125.603,VALID,25.9836,VALID,184,VALID,1.10586,
2008-08-21, 08:39:04,VALID,1006.95,VALID,0,VALID,84.055,VALID,135.458,VALID,25.9642,VALID,198,VALID,0.777734,
2008-08-21, 08:40:04,VALID,1006.96,VALID,0,VALID,84.6119,VALID,133.045,VALID,25.9642,VALID,198,VALID,0.396875,
2008-08-21, 08:41:04,VALID,1006.96,VALID,0,VALID,83.6964,VALID,134.955,VALID,25.9447,VALID,179,VALID,0.959766,
2008-08-21, 08:42:04,VALID,1006.95,VALID,0,VALID,84.528,VALID,138.576,VALID,25.9447,VALID,173,VALID,0.598437,
2008-08-21, 08:43:04,VALID,1006.97,VALID,0,VALID,83.6964,VALID,143.503,VALID,25.9057,VALID,162,VALID,0.989062,
2008-08-21, 08:44:04,VALID,1006.93,VALID,0,VALID,84.1084,VALID,147.023,VALID,25.9057,VALID,172,VALID,1.04883,
2008-08-21, 08:45:04,VALID,1006.94,VALID,0,VALID,84.7263,VALID,150.342,VALID,25.9252,VALID,173,VALID,0.607031,
2008-08-21, 08:46:04,VALID,1006.94,VALID,0,VALID,85.0162,VALID,153.057,VALID,25.9057,VALID,173,VALID,0.651172,
2008-08-21, 08:47:04,VALID,1006.92,VALID,0,VALID,84.7721,VALID,155.169,VALID,25.9057,VALID,171,VALID,0.547266,
2008-08-21, 08:48:04,VALID,1006.89,VALID,0,VALID,84.3754,VALID,155.47,VALID,25.8863,VALID,170,VALID,0.682422,
2008-08-21, 08:49:04,VALID,1006.92,VALID,0,VALID,85.9851,VALID,154.967,VALID,25.9232,VALID,171,VALID,0.400781,
2008-08-21, 08:50:04,VALID,1006.9,VALID,0,VALID,84.9552,VALID,153.962,VALID,25.9427,VALID,177,VALID,0.176563,
2008-08-21, 08:51:04,VALID,1006.95,VALID,0,VALID,83.7727,VALID,153.157,VALID,25.9427,VALID,196,VALID,0.628906,
2008-08-21, 08:52:04,VALID,1006.94,VALID,0,VALID,83.7651,VALID,152.453,VALID,25.9427,VALID,199,VALID,0.199609,
2008-08-21, 08:53:04,VALID,1006.93,VALID,0,VALID,84.1847,VALID,151.548,VALID,25.9622,VALID,199,VALID,0.278125,
2008-08-21, 08:54:04,VALID,1006.92,VALID,0,VALID,83.6583,VALID,151.146,VALID,25.9622,VALID,199,VALID,0.149609,
2008-08-21, 08:55:04,VALID,1006.93,VALID,0,VALID,84.2915,VALID,150.844,VALID,26.0031,VALID,199,VALID,0.142188,
2008-08-21, 08:56:04,VALID,1006.91,VALID,0,VALID,84.116,VALID,150.342,VALID,26.0206,VALID,201,VALID,0.173828,
2008-08-21, 08:57:04,VALID,1006.93,VALID,0,VALID,84.6806,VALID,149.537,VALID,26.0421,VALID,199,VALID,0.127344,
2008-08-21, 08:58:04,VALID,1006.92,VALID,0,VALID,85.0925,VALID,149.034,VALID,26.12,VALID,199,VALID,0,
2008-08-21, 08:59:04,VALID,1006.92,VALID,0,VALID,84.1008,VALID,148.733,VALID,26.118,VALID,199,VALID,0,
2008-08-21, 09:00:04,VALID,1006.92,VALID,0,VALID,85.0162,VALID,148.833,VALID,26.157,VALID,199,VALID,0,
2008-08-21, 09:01:04,VALID,1006.91,VALID,0,VALID,84.5661,VALID,149.638,VALID,26.2349,VALID,199,VALID,0.170312,
2008-08-21, 09:02:04,VALID,1006.89,VALID,0,VALID,83.5973,VALID,150.945,VALID,26.2973,VALID,199,VALID,0.0832031,
2008-08-21, 09:03:04,VALID,1006.86,VALID,0,VALID,82.7428,VALID,153.057,VALID,26.3148,VALID,199,VALID,0.105859,
2008-08-21, 09:04:04,VALID,1006.87,VALID,0,VALID,82.7428,VALID,156.074,VALID,26.3128,VALID,199,VALID,0,
2008-08-21, 09:05:04,VALID,1006.87,VALID,0,VALID,82.6665,VALID,159.694,VALID,26.3733,VALID,199,VALID,0.391797,
2008-08-21, 09:06:04,VALID,1006.88,VALID,0,VALID,82.514,VALID,163.918,VALID,26.3538,VALID,200,VALID,0.344141,
2008-08-21, 09:07:04,VALID,1006.89,VALID,0,VALID,82.308,VALID,168.242,VALID,26.2953,VALID,200,VALID,0.253906,
2008-08-21, 09:08:04,VALID,1006.87,VALID,0,VALID,82.1402,VALID,172.264,VALID,26.2953,VALID,200,VALID,0.0992187,
2008-08-21, 09:09:04,VALID,1006.87,VALID,0,VALID,81.7511,VALID,175.784,VALID,26.2759,VALID,200,VALID,0.110937,
2008-08-21, 09:10:04,VALID,1006.85,VALID,0,VALID,82.7962,VALID,178.6,VALID,26.2759,VALID,197,VALID,0.216797,
2008-08-21, 09:11:04,VALID,1006.85,VALID,0,VALID,81.8579,VALID,180.41,VALID,26.2759,VALID,69,VALID,0.497266,
2008-08-21, 09:12:04,VALID,1006.88,VALID,0,VALID,82.3843,VALID,181.516,VALID,26.2544,VALID,18,VALID,0.536328,
2008-08-21, 09:13:04,VALID,1006.86,VALID,0,VALID,82.8573,VALID,181.717,VALID,26.2953,VALID,17,VALID,0.4125,
2008-08-21, 09:14:04,VALID,1006.87,VALID,0,VALID,81.7053,VALID,182.019,VALID,26.2739,VALID,14,VALID,0.594531,
2008-08-21, 09:15:04,VALID,1006.85,VALID,0,VALID,81.3391,VALID,180.812,VALID,26.2564,VALID,10,VALID,0.120312,
2008-08-21, 09:16:04,VALID,1006.82,VALID,0,VALID,81.3239,VALID,179.304,VALID,26.2739,VALID,10,VALID,0.206641,
2008-08-21, 09:17:04,VALID,1006.8,VALID,0,VALID,82.0868,VALID,178.298,VALID,26.3148,VALID,10,VALID,0.0121094,
2008-08-21, 09:18:04,VALID,1006.81,VALID,0,VALID,82.4529,VALID,177.795,VALID,26.3947,VALID,10,VALID,0.160938,
2008-08-21, 09:19:04,VALID,1006.79,VALID,0,VALID,81.1255,VALID,178.6,VALID,26.3538,VALID,10,VALID,0.344922,
2008-08-21, 09:20:04,VALID,1006.76,VALID,0,VALID,81.4841,VALID,180.611,VALID,26.3538,VALID,11,VALID,0.366406,
2008-08-21, 09:21:04,VALID,1006.71,VALID,0,VALID,81.8655,VALID,183.829,VALID,26.3713,VALID,14,VALID,0.398047,
2008-08-21, 09:22:04,VALID,1006.71,VALID,0,VALID,80.8356,VALID,188.053,VALID,26.3713,VALID,15,VALID,0,
2008-08-21, 09:23:04,VALID,1006.68,VALID,0,VALID,81.2171,VALID,193.181,VALID,26.3927,VALID,15,VALID,0,
2008-08-21, 09:24:04,VALID,1006.7,VALID,0,VALID,82.7047,VALID,199.014,VALID,26.4512,VALID,15,VALID,0,
2008-08-21, 09:25:04,VALID,1006.67,VALID,0,VALID,81.3925,VALID,205.551,VALID,26.4707,VALID,14,VALID,0,
2008-08-21, 09:26:04,VALID,1006.69,VALID,0,VALID,81.034,VALID,213.193,VALID,26.4901,VALID,14,VALID,0,
2008-08-21, 09:27:04,VALID,1006.7,VALID,0,VALID,81.362,VALID,222.646,VALID,26.5291,VALID,14,VALID,0,
2008-08-21, 09:28:04,VALID,1006.7,VALID,0,VALID,80.4237,VALID,231.999,VALID,26.5076,VALID,15,VALID,0.151172,
2008-08-21, 09:29:04,VALID,1006.68,VALID,0,VALID,82.4224,VALID,239.541,VALID,26.5466,VALID,48,VALID,0.379687,
2008-08-21, 09:30:04,VALID,1006.67,VALID,0,VALID,82.636,VALID,248.692,VALID,26.607,VALID,52,VALID,0.346875,
2008-08-21, 09:31:04,VALID,1006.63,VALID,0,VALID,81.0111,VALID,258.447,VALID,26.648,VALID,129,VALID,0.603125,
2008-08-21, 09:32:04,VALID,1006.65,VALID,0,VALID,82.2012,VALID,264.38,VALID,26.607,VALID,137,VALID,0.346094,
2008-08-21, 09:33:04,VALID,1006.61,VALID,0,VALID,82.4606,VALID,269.81,VALID,26.607,VALID,137,VALID,0.276172,
2008-08-21, 09:34:04,VALID,1006.61,VALID,0,VALID,81.3849,VALID,275.14,VALID,26.6265,VALID,160,VALID,0.5125,
2008-08-21, 09:35:04,VALID,1006.62,VALID,0,VALID,82.102,VALID,279.766,VALID,26.6265,VALID,169,VALID,0.299609,
2008-08-21, 09:36:04,VALID,1006.6,VALID,0,VALID,82.0181,VALID,283.789,VALID,26.6245,VALID,169,VALID,0.0230469,
2008-08-21, 09:37:04,VALID,1006.6,VALID,0,VALID,81.9876,VALID,287.811,VALID,26.683,VALID,169,VALID,0.177344,
2008-08-21, 09:38:04,VALID,1006.57,VALID,0,VALID,83.0327,VALID,291.733,VALID,26.7629,VALID,169,VALID,0.358984,
2008-08-21, 09:39:04,VALID,1006.58,VALID,0,VALID,81.6367,VALID,293.744,VALID,26.8234,VALID,176,VALID,0.330469,
2008-08-21, 09:40:04,VALID,1006.57,VALID,0,VALID,80.8127,VALID,296.057,VALID,26.8429,VALID,140,VALID,0.752344,
2008-08-21, 09:41:04,VALID,1006.59,VALID,0,VALID,81.3162,VALID,297.767,VALID,26.7824,VALID,120,VALID,0.842578,
2008-08-21, 09:42:04,VALID,1006.59,VALID,0,VALID,81.69,VALID,301.588,VALID,26.7824,VALID,136,VALID,0.982813,
2008-08-21, 09:43:04,VALID,1006.59,VALID,0,VALID,80.3855,VALID,309.633,VALID,26.8019,VALID,178,VALID,0.524219,
2008-08-21, 09:44:04,VALID,1006.6,VALID,0,VALID,80.7975,VALID,331.556,VALID,26.8819,VALID,177,VALID,0.220313,
2008-08-21, 09:45:04,VALID,1006.58,VALID,0,VALID,81.095,VALID,343.523,VALID,26.9383,VALID,103,VALID,0,
2008-08-21, 09:46:04,VALID,1006.56,VALID,0,VALID,80.2635,VALID,334.875,VALID,27.0552,VALID,103,VALID,0,
2008-08-21, 09:47:04,VALID,1006.53,VALID,0,VALID,79.348,VALID,347.244,VALID,27.1526,VALID,90,VALID,0.505859,
2008-08-21, 09:48:04,VALID,1006.55,VALID,0,VALID,78.9437,VALID,391.492,VALID,27.2695,VALID,82,VALID,0.0871094,
2008-08-21, 09:49:04,VALID,1006.55,VALID,0,VALID,77.7688,VALID,430.409,VALID,27.4059,VALID,301,VALID,0.526953,
2008-08-21, 09:50:04,VALID,1006.57,VALID,0,VALID,77.334,VALID,541.029,VALID,27.5229,VALID,357,VALID,0.522266,
2008-08-21, 09:51:04,VALID,1006.55,VALID,0,VALID,78.0206,VALID,478.579,VALID,27.5618,VALID,7,VALID,0.510156,